User: anonymous   Login
Location: Fauquembergues
(50.6005°N, 2.0987°E)
Time: 02:36:00
(UTC+00:00)
Language:

Lacrosse 5 - Orbit

View from above orbital plane
View from above orbital plane
View from above satellite
View from above satellite

Ground track
Ground track

The orbit data is extracted from the following two-line orbital elements,

1 28646U 05016A   20265.04999376 0.00000000  00000-0  00000-0 0    03
2 28646  57.0148 359.1375 0004394  62.2212 297.7310 14.52052747    07
Epoch (UTC): 21 September 2020 01:11:59
Eccentricity: 0.0004394
inclination: 57.0148°
perigee height: 716 km
apogee height: 722 km
right ascension of ascending node: 359.1375°
argument of perigee: 62.2212°
revolutions per day: 14.52052747
mean anomaly at epoch: 297.7310°
orbit number at epoch: 0

The dashed part of the orbit path shows where the satellite is in the earth's shadow,  

DLR